User: anonymous   Login
Location: *
(48.8780°N, 19.2358°E)
Time: 20:33:01
(UTC+00:00)
Language:

Gbstr 26 Del rocket - Orbit

View from above orbital plane
View from above orbital plane
View from above satellite
View from above satellite

Ground track
Ground track

The orbit data is extracted from the following two-line orbital elements,

1 25876U 99041E   19344.50183942 -.00000187  00000-0  94496-5 0  9998
2 25876  51.7650 340.1667 0531312 150.1732 213.0630 14.04378532 41967
Epoch (UTC): 10 December 2019 12:02:38
Eccentricity: 0.0531312
inclination: 51.7650°
perigee height: 493 km
apogee height: 1264 km
right ascension of ascending node: 340.1667°
argument of perigee: 150.1732°
revolutions per day: 14.04378532
mean anomaly at epoch: 213.0630°
orbit number at epoch: 4196

The dashed part of the orbit path shows where the satellite is in the earth's shadow,  

DLR